Regional Weather Roundup
Issued by NWS

Home | Current Version | Previous Version | Text Only | Print | Product List | Glossary On
Versions: 1 2 3 4 5 6 7 8 9 10 11 12 13 14 15 16 17 18 19 20 21 22 23 24 25 26 27 28
000
ASUS45 KPSR 171910
RWRAZ

ARIZONA HOURLY REGIONAL WEATHER ROUNDUP
NATIONAL WEATHER SERVICE PHOENIX AZ
1200 PM MST THU AUG 17 2017

NOTE: FAIR INDICATES FEW OR NO CLOUDS BELOW 12,000 FEET WITH NO
SIGNIFICANT WEATHER AND/OR OBSTRUCTIONS TO VISIBILITY.

AZZ001>003-036-172000-
NORTHWEST ARIZONA

CITY           SKY/WX    TMP DP  RH WIND       PRES   REMARKS
BULLHEAD CITY  SUNNY     99  36  11 SW10      29.91F
KINGMAN        SUNNY     92  40  16 W6        30.10F
$$

AZZ004>008-015-016-018-172000-
NORTH CENTRAL ARIZONA

CITY           SKY/WX    TMP DP  RH WIND       PRES   REMARKS
GRAND CANYON   MOSUNNY   77  37  23 S13       30.33F
WILLIAMS       SUNNY     75  28  17 SW7       30.34S
PRESCOTT       SUNNY     82  40  22 CALM      30.23F
FLAGSTAFF      SUNNY     74  32  21 SW14      30.36F
PAYSON           N/A     82  30  15 VRB7G14   30.26F
PAGE           SUNNY     88  36  15 CALM      30.14F
$$

AZZ009>014-017-172000-
NORTHEAST ARIZONA

CITY           SKY/WX    TMP DP  RH WIND       PRES   REMARKS
WINSLOW        SUNNY     86  36  16 VRB3      30.21F
SAINT JOHNS    SUNNY     83  39  21 E8        30.27F
WINDOW ROCK    SUNNY     81  33  17 CALM      30.32F
$$

AZZ540-542>544-546-548-172000-
GREATER PHOENIX AREA

CITY           SKY/WX    TMP DP  RH WIND       PRES   REMARKS
PHOENIX        MOSUNNY   97  38  13 VRB7      29.95F
BUCKEYE        SUNNY     95  45  17 SE9       29.96F
GLENDALE       SUNNY     97  43  15 VRB5      29.97F
LUKE AFB       SUNNY     96  47  18 NE8       29.94F
DEER VALLEY    SUNNY     96  36  12 SE8       29.97F
SCOTTSDALE     SUNNY     96  36  12 S9        29.99F
MESA-FALCON    SUNNY     97  43  15 SE8       29.98F
MESA-GATEWAY   SUNNY     95  39  14 S9        29.99F
CHANDLER       SUNNY     95  37  13 S10       29.97F
$$

AZZ539-553-172000-
SOUTHWEST MARICOPA COUNTY AND PINAL COUNTY

CITY           SKY/WX    TMP DP  RH WIND       PRES   REMARKS
CASA GRANDE    SUNNY     95  45  17 SE5       30.00F
GILA BEND      SUNNY     99  40  13 NE6       29.91F
$$

AZZ503-504-507>509-172000-
SOUTHEAST ARIZONA

CITY           SKY/WX    TMP DP  RH WIND       PRES   REMARKS
TUCSON         NOT AVBL
DAVIS-MONTHAN  SUNNY     95  40  15 NE3       30.07F
RYAN FIELD     SUNNY     93  36  13 CALM      30.07F
NOGALES        SUNNY     91  39  16 SW12G18   30.17F
SIERRA VISTA   SUNNY     85  46  25 SE7       30.23S
DOUGLAS        SUNNY     86  48  26 SW7       30.18F
SAFFORD        SUNNY     92  46  20 NW6       30.08F
$$

AZZ532-172000-
SOUTHWEST ARIZONA

CITY           SKY/WX    TMP DP  RH WIND       PRES   REMARKS
YUMA           SUNNY     99  47  17 W6        29.89F
$$

CAZ041-043-047-048-061-525>527-560>570-172000-
SOUTHERN CALIFORNIA

CITY           SKY/WX    TMP DP  RH WIND       PRES   REMARKS
DOWNTOWN L.A.  SUNNY     81  61  50 VRB3      30.00F
L.A. AIRPORT   MOSUNNY   73  62  68 W10       30.02F
SAN DIEGO      MOSUNNY   75  60  59 W7        30.03F
BURBANK        SUNNY     78  59  51 S7        30.01F
ONTARIO        SUNNY     80  56  43 VRB6      30.02F
RIVERSIDE      SUNNY     80  60  50 VRB6      30.01F
PALM SPRINGS   SUNNY    100  47  16 E5        29.91F
EL CENTRO NAS  SUNNY     98  46  17 SE6       29.89F
IMPERIAL       SUNNY     98  52  21 VRB3      29.87F
BLYTHE           N/A    101  44  14 NE5       29.90F
NEEDLES        SUNNY    103  35   9 NE6       29.92F
$$

NVZ020-UTZ003-172000-
SOUTHERN NEVADA-UTAH

CITY           SKY/WX    TMP DP  RH WIND       PRES   REMARKS
LAS VEGAS      MOSUNNY   95  39  14 VRB3      30.01S
SALT LAKE CITY MOSUNNY   89  38  16 N6        30.12F
$$

NMZ009-TXZ055-172000-
NEW MEXICO-WEST TEXAS

CITY           SKY/WX    TMP DP  RH WIND       PRES   REMARKS
ALBUQUERQUE    MOSUNNY   85  36  17 SW7       30.23F
EL PASO        PTSUNNY   91  46  21 CALM      30.13S
$$


........................KEY........................
SKY/WX - SKY CONDITION/WEATHER
TMP    - TEMPERATURE IN FAHRENHEIT
DP     - DEW POINT IN FAHRENHEIT
RH     - RELATIVE HUMIDITY IN PERCENT
WIND   - DIRECTION AND SPEED IN MILES PER HOUR (MPH)
VRB    - VARIABLE WIND DIRECTION
PRES   - MEAN SEA LEVEL PRESSURE IN INCHES OF MERCURY
         F - FALLING PRESSURE   R - RISING PRESSURE
         S - STEADY PRESSURE
VSB    - VISIBILITY IN MILES
HX     - HEAT INDEX IN FAHRENHEIT
WCI    - WIND CHILL INDEX IN FAHRENHEIT
TC     - TEMPERATURE IN CELSIUS WHICH IS ALSO KNOWN AS
         TEMPERATURE IN CENTIGRADE
AFB    - AIR FORCE BASE
         LUKE AFB IS LUKE AIR FORCE BASE
         DAVIS-MONTHAN IS DAVIS-MONTHAN AIR FORCE BASE
NAS    - NAVAL AIR STATION
         EL CENTRO NAS IS EL CENTRO NAVAL AIR STATION
N/A    - NOT AVAILABLE





USA.gov is the U.S. government's official web portal to all federal, state and local government web resources and services.